Location: Albert Place
(40.7505°N, 111.9230°W)
Time: 14:49:35
(UTC+00:00)

S3M - Pass Details

Date: 13 December 2025
Orbit: 947 x 1004 km, 83.0° (Epoch: 17 January)

Event Time Altitude Azimuth Distance (km) Brightness Sun altitude
Rises 14:04:48 0° 349° (N) 3,657 6.7 -7.3°
Reaches altitude 10° 14:07:20 10° 347° (NNW) 2,699 6.0 -6.9°
Maximum altitude 14:13:24 64° 267° (W) 1,047 4.0 -5.9°
Drops below altitude 10° 14:19:24 10° 187° (S) 2,661 6.6 -4.9°
Sets 14:21:53 0° 184° (S) 3,601 7.3 -4.4°
